STARLINK-1268 (45385 NORAD) Tracking and Keplerian Element Data

This shows tracking and keplerian element data for the satellite.

Feedback or suggestion? Click here.




ElementValue
Catalog45385
NameSTARLINK-1268
Epoch Orbit1816
Epoch Day190.25001157
Epoch Year2020
RAAN66.6219
Inclination52.999
Eccentricity0.0001091
Argument of Perigee12.3441
Mean Anonmoly141.238
Mean Motion15.65520373
Decay Rate-4.9E-07
L11 45385U 20019AB 20190.25001157 -.00000049 00000-0 49570-5 0 9994
L22 45385 52.9990 66.6219 0001091 12.3441 141.2380 15.65520373 18169

Live tracking and technical data element details for STARLINK-1268 (NORAD 45385). STARLINK-1268 can be tracked NOW for your location showing map with azimuth and elevation plus other details from your city location.

Track the satellite on the map from your city or location and see movement details for azimuth, elevation, latitude, longitude, range, height, and movement on the map or in text.







IsCatalogInMostPopularTable: catalog: 45385, numindb: 25
Update: records affected: 1



GetName: 45385 STARLINK-1268

Hit Count: updated at: Thu, 09 Jul 2020 02:13:47 GMT